Location: Big Meadows
(38.5260°N, 78.4400°W)
Time: 23:25:28
(UTC-05:00)

Amateur Radio Satellites - All Passes

Search period start: 14 December 2017 22:55
Search period end: 15 December 2017 22:55
Location: Big Meadows, 38.5260°N, 78.4400°W

Satellite Date Start Highest point End Downlink Frequencies (MHz)
Time Altitude Azimuth
QB50P2 14 Dec 23:04:39 23:06:44 13° 92° (E) 23:08:49 145.880/145.840
FALCONSAT 3 14 Dec 23:09:42 23:13:12 41° 169° (S) 23:16:41 435.103
TIGRISAT 14 Dec 23:11:57 23:15:05 20° 292° (WNW) 23:18:14 435.000
UNISAT 6 14 Dec 23:15:36 23:18:21 17° 293° (WNW) 23:21:08 437.425
AIST 2D 14 Dec 23:26:10 23:29:44 81° 101° (ESE) 23:33:16 435.315
SPROUT 14 Dec 23:29:19 23:33:20 43° 73° (ENE) 23:37:22 437.525
NANOSAT C BR1 14 Dec 23:34:57 23:38:22 23° 96° (E) 23:41:45 145.865
EO-79 14 Dec 23:49:55 23:53:55 40° 99° (E) 23:57:53 145.935-145.965
PRISM 14 Dec 23:51:26 23:54:29 21° 292° (WNW) 23:57:31 437.425
SO-50 15 Dec 00:02:35 00:07:06 46° 54° (NE) 00:11:39 436.795
POLYITAN 1 15 Dec 00:12:47 00:17:01 77° 101° (E) 00:21:15 437.675
RS-15 15 Dec 00:13:17 00:25:04 83° 243° (WSW) 00:36:12 29.354- 29.394
VELOX 1 15 Dec 00:25:30 00:29:56 71° 257° (WSW) 00:34:24 145.980
QB50P2 15 Dec 00:38:41 00:42:44 46° 287° (WNW) 00:46:46 145.880/145.840
DUCHIFAT 1 15 Dec 00:43:23 00:47:31 61° 286° (WNW) 00:51:39 145.980
Oscar 19 15 Dec 00:43:25 00:46:51 18° 93° (E) 00:50:16 437.125/150
FALCONSAT 3 15 Dec 00:48:28 00:52:03 51° 184° (S) 00:55:38 435.103
UKube-1 15 Dec 01:04:45 01:08:44 38° 72° (ENE) 01:12:46 .
SPROUT 15 Dec 01:07:06 01:09:24 14° 268° (W) 01:11:42 437.525
NANOSAT C BR1 15 Dec 01:10:29 01:13:59 26° 290° (WNW) 01:17:28 145.865
DX 1 15 Dec 01:20:32 01:24:55 83° 259° (WSW) 01:29:19 434.975-435.025
BUGSAT 1 15 Dec 01:22:59 01:27:03 84° 105° (ESE) 01:31:07 437.445
Gurwin Techsat 1B 15 Dec 01:25:59 01:30:46 33° 97° (E) 01:35:31 435.225
EO-79 15 Dec 01:26:44 01:29:18 16° 294° (WNW) 01:31:54 145.935-145.965
50 SAT 15 Dec 01:33:09 01:36:10 41° 260° (W) 01:39:12 437.505
ITUPSAT 1 15 Dec 01:40:32 01:43:09 15° 63° (ENE) 01:45:45 437.325
SO-50 15 Dec 01:43:56 01:47:13 19° 250° (WSW) 01:50:32 436.795
AO-91 15 Dec 01:54:38 01:58:06 81° 282° (WNW) 02:01:27 145.960
YUBILEINY 15 Dec 02:07:19 02:14:46 32° 84° (E) 02:22:16 435.215
CUBESAT XI-V 15 Dec 02:14:42 02:15:50 11° 62° (ENE) 02:16:59 437.345
Oscar 19 15 Dec 02:21:23 02:26:26 52° 288° (WNW) 02:31:27 437.125/150
MOZHAYETS 4 15 Dec 02:23:54 02:28:22 58° 73° (ENE) 02:32:51
FALCONSAT 3 15 Dec 02:27:40 02:30:49 27° 199° (SSW) 02:33:57 435.103
RS-15 15 Dec 02:28:42 02:35:27 18° 263° (W) 02:42:05 29.354- 29.394
UKube-1 15 Dec 02:42:03 02:44:53 17° 266° (W) 02:47:43 .
AO-7 15 Dec 02:44:52 02:51:53 29° 96° (E) 02:58:50 .
BEESAT 15 Dec 02:47:08 02:51:52 73° 74° (ENE) 02:56:37 436.000
Gurwin Techsat 1B 15 Dec 03:06:03 03:10:34 29° 293° (WNW) 03:15:05 435.225
ITUPSAT 1 15 Dec 03:15:47 03:20:27 58° 259° (W) 03:25:09 437.325
PCSat 15 Dec 03:33:51 03:39:06 47° 57° (ENE) 03:44:18 145.827
ITAMSAT 1 15 Dec 03:34:13 03:39:05 40° 99° (E) 03:43:54 435.822/435.867
CUBESAT XI-V 15 Dec 03:47:52 03:52:31 77° 259° (W) 03:57:13 437.345
M-CUBED/EXP-1 PRIME 15 Dec 03:58:06 04:02:37 82° 107° (ESE) 04:06:48 437.505
YUBILEINY 15 Dec 04:02:36 04:11:07 52° 283° (WNW) 04:19:44 435.215
MOZHAYETS 4 15 Dec 04:04:03 04:05:51 12° 269° (W) 04:07:40
KKS-1 15 Dec 04:11:16 04:15:20 36° 71° (ENE) 04:19:25 437.445
BEESAT 3 15 Dec 04:24:49 04:28:16 28° 52° (NE) 04:31:39 437.485
BEESAT 15 Dec 04:29:25 04:30:06 10° 270° (W) 04:30:47 436.000
DOVE 4 15 Dec 04:33:11 04:37:03 28° 95° (E) 04:40:43 437.250
AO-7 15 Dec 04:36:48 04:44:59 60° 293° (WNW) 04:53:09 .
JUGNU 15 Dec 04:43:49 04:45:36 11° 176° (S) 04:47:23 437.505
STARS 15 Dec 04:53:02 04:57:07 39° 71° (ENE) 05:01:13 437.465
BEESAT 2 15 Dec 05:05:53 05:09:07 23° 50° (NE) 05:12:19 435.950
ITAMSAT 1 15 Dec 05:14:14 05:18:16 23° 295° (WNW) 05:22:16 435.822/435.867
AO-85 15 Dec 05:16:18 05:18:32 13° 42° (NE) 05:20:49 145.980
PCSat 15 Dec 05:18:01 05:22:08 22° 254° (WSW) 05:26:12 145.827
LilacSat-2 15 Dec 05:20:50 05:23:16 16° 93° (E) 05:25:40 437.200
XW-2D 15 Dec 05:34:03 05:37:05 22° 95° (E) 05:40:05 145.860 - 145.880
M-CUBED/EXP-1 PRIME 15 Dec 05:35:18 05:36:11 10° 304° (NW) 05:37:03 437.505
NUDT-PHONESAT 15 Dec 05:37:14 05:39:24 15° 93° (E) 05:41:34 437.300
NO-84 15 Dec 05:38:50 05:41:10 22° 126° (SE) 05:43:37 435.350 FM
KAITUO 1B 15 Dec 05:41:24 05:44:03 18° 94° (E) 05:46:41 145.475/437.950
KKS-1 15 Dec 05:48:45 05:51:58 19° 266° (W) 05:55:11 437.445
XW-2B 15 Dec 05:49:35 05:53:04 32° 97° (E) 05:56:31 145.730 - 145.750
STRAND 1 15 Dec 05:59:06 06:03:15 25° 67° (ENE) 06:07:23 437.568
XW-2F 15 Dec 06:01:06 06:04:46 42° 99° (E) 06:08:24 145.980 - 146.000
BEESAT 3 15 Dec 06:02:35 06:05:38 22° 248° (WSW) 06:08:38 437.485
DOVE 4 15 Dec 06:11:05 06:14:34 23° 293° (WNW) 06:17:54 437.250
XW-2C 15 Dec 06:16:43 06:20:35 77° 101° (ESE) 06:24:25 145.795 - 145.815
CUBEBUG 2 15 Dec 06:19:36 06:20:11 10° 91° (E) 06:20:45 437.445
STARS 15 Dec 06:30:43 06:33:35 17° 266° (W) 06:36:27 437.465
JUGNU 15 Dec 06:32:31 06:33:41 11° 187° (S) 06:34:52 437.505
AO-7 15 Dec 06:32:46 06:36:01 13° 313° (NW) 06:39:17 .
FO-29 15 Dec 06:33:47 06:40:00 27° 62° (ENE) 06:46:14 435.910
SEEDS 15 Dec 06:36:42 06:39:30 17° 93° (E) 06:42:18 437.485
HO-68 15 Dec 06:39:46 06:46:23 39° 98° (E) 06:52:55 435.675
CUTE-I 15 Dec 06:42:20 06:47:41 90° 356° (N) 06:53:00 437.470
BEESAT 2 15 Dec 06:43:19 06:46:50 30° 247° (WSW) 06:50:19 435.950
LilacSat-2 15 Dec 06:54:06 06:57:35 32° 288° (WNW) 07:01:03 437.200
AO-85 15 Dec 06:54:43 06:59:35 83° 57° (ENE) 07:04:47 145.980
AAUSAT CUBESAT 2 15 Dec 06:55:35 06:56:38 11° 90° (E) 06:57:40 437.432
CUTE 1.7 + AOD 2 15 Dec 06:59:34 07:03:47 54° 100° (E) 07:07:57 437.475
XW-2D 15 Dec 07:08:04 07:11:08 23° 290° (WNW) 07:14:13 145.860 - 145.880
NUDT-PHONESAT 15 Dec 07:09:56 07:13:19 32° 288° (WNW) 07:16:40 437.300
KAITUO 1B 15 Dec 07:14:47 07:18:01 27° 289° (WNW) 07:21:13 145.475/437.950
AO-73 15 Dec 07:15:03 07:16:28 11° 91° (E) 07:17:54 145.935
NO-84 15 Dec 07:15:41 07:18:17 25° 325° (NW) 07:21:02 435.350 FM
SRMSAT 15 Dec 07:20:22 07:22:10 11° 174° (S) 07:23:57 437.500
XW-2B 15 Dec 07:24:31 07:26:57 16° 292° (WNW) 07:29:21 145.730 - 145.750
XW-2A 15 Dec 07:36:08 07:39:14 31° 97° (E) 07:42:19 145.665 - 145.685
XW-2F 15 Dec 07:36:46 07:38:27 13° 294° (WNW) 07:40:08 145.980 - 146.000
STRAND 1 15 Dec 07:37:32 07:42:13 36° 262° (W) 07:46:55 437.568
UWE-3 15 Dec 07:51:17 07:55:36 69° 101° (E) 08:00:02 435.000/436.395/437.385
CUBEBUG 2 15 Dec 07:52:53 07:57:06 62° 285° (WNW) 08:01:27 437.445
SEEDS 15 Dec 08:11:24 08:15:17 36° 288° (WNW) 08:19:09 437.485
O/OREOS (USA 219) 15 Dec 08:14:10 08:18:43 70° 109° (ESE) 08:23:17 437.305
ZACube-1 15 Dec 08:15:02 08:19:24 65° 101° (ESE) 08:23:49 437.345
FO-29 15 Dec 08:16:42 08:24:20 67° 259° (W) 08:32:11 435.910
CUTE-I 15 Dec 08:25:16 08:26:55 11° 301° (WNW) 08:28:33 437.470
HO-68 15 Dec 08:27:31 08:34:01 39° 295° (WNW) 08:40:29 435.675
AAUSAT CUBESAT 2 15 Dec 08:28:18 08:32:23 54° 285° (WNW) 08:36:24 437.432
TIGRISAT 15 Dec 08:32:16 08:35:46 25° 70° (ENE) 08:39:16 435.000
Oscar 11 15 Dec 08:33:48 08:38:07 59° 100° (E) 08:42:24 .
UNISAT 6 15 Dec 08:35:26 08:39:11 30° 71° (ENE) 08:42:55 437.425
CUTE 1.7 + AOD 2 15 Dec 08:37:14 08:39:06 13° 295° (WNW) 08:40:59 437.475
AO-85 15 Dec 08:37:50 08:39:28 11° 253° (WSW) 08:41:08 145.980
AO-73 15 Dec 08:48:41 08:53:00 59° 285° (WNW) 08:57:22 145.935
PRISM 15 Dec 09:04:04 09:06:54 18° 67° (ENE) 09:09:44 437.425
SRMSAT 15 Dec 09:08:29 09:10:26 12° 185° (S) 09:12:22 437.500
XW-2A 15 Dec 09:09:59 09:11:36 13° 292° (WNW) 09:13:13 145.665 - 145.685
DELFI C3 15 Dec 09:24:21 09:28:04 39° 98° (E) 09:31:45 145.870
Max Valier Satellite 15 Dec 09:26:47 09:30:00 27° 96° (E) 09:33:13 145.860
UWE-3 15 Dec 09:30:36 09:31:30 11° 296° (WNW) 09:32:25 435.000/436.395/437.385
EO-88 15 Dec 09:53:04 09:56:32 39° 98° (E) 09:59:59 145.990 - 145.960
ZACube-1 15 Dec 09:53:44 09:55:07 11° 296° (WNW) 09:56:30 437.345
O/OREOS (USA 219) 15 Dec 09:56:41 09:58:38 12° 306° (NW) 10:00:34 437.305
AIST 2D 15 Dec 09:59:09 10:01:53 21° 70° (ENE) 10:04:37 435.315
ISS 15 Dec 10:04:56 10:06:29 13° 128° (SE) 10:08:02 437.550
TIGRISAT 15 Dec 10:08:50 10:12:22 25° 264° (W) 10:15:53 435.000
FO-29 15 Dec 10:09:09 10:10:34 11° 276° (W) 10:12:00 435.910
Oscar 11 15 Dec 10:11:57 10:13:43 12° 296° (WNW) 10:15:29 .
UNISAT 6 15 Dec 10:12:39 10:15:54 21° 265° (W) 10:19:08 437.425
NANOSAT C BR1 15 Dec 10:26:26 10:28:51 15° 66° (ENE) 10:31:17 145.865
PRISM 15 Dec 10:38:05 10:41:52 34° 262° (W) 10:45:42 437.425
EO-79 15 Dec 10:41:04 10:44:29 25° 69° (ENE) 10:47:56 145.935-145.965
ESTCUBE 1 15 Dec 10:47:27 10:50:36 18° 93° (E) 10:53:43 437.505/2401.250
nSIGHT-1 15 Dec 10:54:51 10:58:01 63° 139° (SE) 11:01:13 .
DELFI C3 15 Dec 11:00:20 11:02:26 14° 294° (WNW) 11:04:32 145.870
Max Valier Satellite 15 Dec 11:01:03 11:03:36 18° 291° (WNW) 11:06:08 145.860
POLYITAN 1 15 Dec 11:03:36 11:07:35 45° 73° (ENE) 11:11:35 437.675
EO-88 15 Dec 11:28:13 11:29:47 12° 293° (WNW) 11:31:20 145.990 - 145.960
QB50P2 15 Dec 11:29:08 11:33:20 78° 258° (WSW) 11:37:33 145.880/145.840
AIST 2D 15 Dec 11:32:24 11:34:57 19° 266° (W) 11:37:32 435.315
DUCHIFAT 1 15 Dec 11:33:05 11:37:14 78° 75° (ENE) 11:41:24 145.980
ISS 15 Dec 11:39:21 11:42:36 59° 324° (NW) 11:45:51 437.550
LO-87 15 Dec 11:54:42 11:58:04 42° 286° (WNW) 12:01:26 145.935 - 145.965
Oscar 19 15 Dec 11:58:47 12:02:45 23° 66° (ENE) 12:06:44 437.125/150
NANOSAT C BR1 15 Dec 12:00:14 12:04:11 42° 261° (W) 12:08:09 145.865
BUGSAT 1 15 Dec 12:10:58 12:14:49 45° 73° (ENE) 12:18:40 437.445
NO-84 15 Dec 12:11:51 12:14:11 16° 29° (NNE) 12:16:37 435.350 FM
EO-79 15 Dec 12:16:44 12:20:09 24° 264° (W) 12:23:34 145.935-145.965
VELOX 1 15 Dec 12:17:23 12:20:55 23° 95° (E) 12:24:26 145.980
YUBILEINY 15 Dec 12:20:29 12:24:38 14° 60° (ENE) 12:28:45 435.215
ESTCUBE 1 15 Dec 12:23:18 12:27:31 39° 289° (WNW) 12:31:43 437.505/2401.250
RS-15 15 Dec 12:27:12 12:34:04 17° 97° (E) 12:40:54 29.354- 29.394
nSIGHT-1 15 Dec 12:32:08 12:34:29 18° 336° (NNW) 12:36:50 .
POLYITAN 1 15 Dec 12:41:33 12:43:34 13° 268° (W) 12:45:36 437.675
Gurwin Techsat 1B 15 Dec 12:45:29 12:50:33 47° 71° (ENE) 12:55:38 435.225
AO-91 15 Dec 12:48:48 12:53:44 68° 76° (ENE) 12:58:11 145.960
SPROUT 15 Dec 12:51:32 12:55:47 78° 284° (WNW) 13:00:01 437.525
DX 1 15 Dec 13:11:00 13:14:02 18° 94° (E) 13:17:02 434.975-435.025
ISS 15 Dec 13:17:55 13:19:38 13° 342° (NNW) 13:21:20 437.550
Oscar 19 15 Dec 13:36:59 13:41:47 40° 261° (W) 13:46:38 437.125/150
AO-7 15 Dec 13:42:21 13:49:41 37° 61° (ENE) 13:57:03 .
NO-84 15 Dec 13:48:01 13:51:52 90° 357° (N) 13:55:58 435.350 FM
BUGSAT 1 15 Dec 13:48:42 13:50:22 12° 268° (W) 13:52:03 437.445
VELOX 1 15 Dec 13:53:32 13:57:19 29° 291° (WNW) 14:01:04 145.980
YUBILEINY 15 Dec 14:14:14 14:23:05 75° 82° (E) 14:31:50 435.215
SO-50 15 Dec 14:16:39 14:19:49 19° 110° (ESE) 14:22:59 436.795
MOZHAYETS 4 15 Dec 14:21:30 14:24:13 15° 92° (E) 14:26:54
50 SAT 15 Dec 14:22:10 14:25:10 41° 286° (WNW) 14:28:08 437.505
Gurwin Techsat 1B 15 Dec 14:26:49 14:30:41 20° 266° (W) 14:34:34 435.225
UKube-1 15 Dec 14:28:26 14:32:46 86° 100° (E) 14:37:03 .
AO-91 15 Dec 14:28:46 14:30:23 11° 268° (W) 14:31:57 145.960
RS-15 15 Dec 14:32:14 14:44:29 77° 116° (ESE) 14:56:42 29.354- 29.394
M-CUBED/EXP-1 PRIME 15 Dec 14:41:14 14:45:31 78° 72° (ENE) 14:50:06 437.505
DX 1 15 Dec 14:46:20 14:50:18 35° 289° (WNW) 14:54:14 434.975-435.025
BEESAT 15 Dec 14:49:24 14:52:54 20° 94° (E) 14:56:24 436.000
ITAMSAT 1 15 Dec 14:50:34 14:55:38 55° 72° (ENE) 15:00:43 435.822/435.867
ITUPSAT 1 15 Dec 15:17:35 15:22:04 39° 98° (E) 15:26:31 437.325
NO-84 15 Dec 15:28:26 15:28:42 10° 238° (WSW) 15:28:57 435.350 FM
AO-7 15 Dec 15:34:13 15:42:09 50° 258° (WSW) 15:50:12 .
DOVE 4 15 Dec 15:36:06 15:40:37 30° 70° (ENE) 15:45:03 437.250
CUBESAT XI-V 15 Dec 15:46:06 15:50:12 29° 96° (E) 15:54:16 437.345
nSIGHT-1 15 Dec 15:47:58 15:49:10 12° 16° (NNE) 15:50:23 .
SO-50 15 Dec 15:55:43 15:59:56 41° 307° (NW) 16:04:13 436.795
MOZHAYETS 4 15 Dec 15:57:09 16:01:35 48° 287° (WNW) 16:06:02
YUBILEINY 15 Dec 16:12:47 16:18:51 21° 280° (W) 16:24:54 435.215
CUTE-I 15 Dec 16:25:20 16:28:33 16° 62° (ENE) 16:31:45 437.470
BEESAT 15 Dec 16:26:22 16:30:47 39° 289° (WNW) 16:35:11 436.000
XW-2B 15 Dec 16:30:37 16:32:31 14° 67° (ENE) 16:34:26 145.730 - 145.750
ITAMSAT 1 15 Dec 16:32:08 16:35:24 17° 267° (W) 16:38:40 435.822/435.867
ISS 15 Dec 16:32:42 16:34:56 17° 23° (NNE) 16:37:09 437.550
XW-2F 15 Dec 16:41:09 16:43:38 17° 68° (ENE) 16:46:08 145.980 - 146.000
RS-15 15 Dec 16:47:07 16:58:11 37° 320° (NW) 17:09:08 29.354- 29.394
O/OREOS (USA 219) 15 Dec 16:49:07 16:50:11 11° 53° (NE) 16:51:15 437.305
ITUPSAT 1 15 Dec 16:56:03 16:59:36 21° 294° (WNW) 17:03:08 437.325
XW-2C 15 Dec 16:56:32 16:59:47 28° 71° (ENE) 17:03:04 145.795 - 145.815
HO-68 15 Dec 17:07:43 17:13:22 26° 61° (ENE) 17:19:01 435.675
DOVE 4 15 Dec 17:13:29 17:18:10 32° 264° (W) 17:22:45 437.250
nSIGHT-1 15 Dec 17:22:55 17:26:02 45° 35° (NE) 17:29:07 .
CUBESAT XI-V 15 Dec 17:23:31 17:27:26 27° 291° (WNW) 17:31:19 437.345
SEEDS 15 Dec 17:28:58 17:29:46 10° 64° (ENE) 17:30:34 437.485
LilacSat-2 15 Dec 17:33:36 17:37:25 85° 260° (W) 17:41:16 437.200
KKS-1 15 Dec 17:39:23 17:43:50 88° 108° (ESE) 17:48:15 437.445
NUDT-PHONESAT 15 Dec 17:46:30 17:50:10 84° 77° (ENE) 17:53:53 437.300
XW-2D 15 Dec 17:46:37 17:50:21 60° 260° (W) 17:54:07 145.860 - 145.880
CUTE 1.7 + AOD 2 15 Dec 17:50:40 17:54:25 31° 71° (ENE) 17:58:12 437.475
KAITUO 1B 15 Dec 17:52:05 17:55:48 77° 258° (WSW) 17:59:35 145.475/437.950
CUTE-I 15 Dec 18:02:41 18:08:00 65° 258° (WSW) 18:13:21 437.470
XW-2B 15 Dec 18:02:46 18:06:19 38° 262° (W) 18:09:54 145.730 - 145.750
ISS 15 Dec 18:08:29 18:11:46 82° 224° (SW) 18:15:02 437.550
PCSat 15 Dec 18:13:45 18:19:02 58° 113° (ESE) 18:24:21 145.827
XW-2F 15 Dec 18:14:10 18:17:29 29° 263° (W) 18:20:50 145.980 - 146.000
STARS 15 Dec 18:19:23 18:23:46 86° 279° (W) 18:28:06 437.465
O/OREOS (USA 219) 15 Dec 18:25:41 18:30:11 79° 250° (WSW) 18:34:38 437.305
XW-2C 15 Dec 18:31:24 18:33:57 17° 266° (W) 18:36:32 145.795 - 145.815
UWE-3 15 Dec 18:46:51 18:50:47 42° 73° (ENE) 18:54:43 435.000/436.395/437.385
CUBEBUG 2 15 Dec 18:49:14 18:53:27 88° 88° (E) 18:57:37 437.445
HO-68 15 Dec 18:53:28 19:00:33 61° 257° (WSW) 19:07:41 435.675
nSIGHT-1 15 Dec 18:59:52 19:01:58 16° 230° (SW) 19:04:03 .
SEEDS 15 Dec 19:00:39 19:04:50 66° 259° (W) 19:09:04 437.485
RS-15 15 Dec 19:08:05 19:15:51 18° 354° (N) 19:23:27 29.354- 29.394
ZACube-1 15 Dec 19:09:27 19:13:18 39° 72° (ENE) 19:17:10 437.345
AAUSAT CUBESAT 2 15 Dec 19:16:07 19:20:16 77° 77° (ENE) 19:24:28 437.432
Oscar 11 15 Dec 19:27:01 19:30:57 36° 72° (ENE) 19:34:55 .
CUTE 1.7 + AOD 2 15 Dec 19:27:08 19:30:16 20° 266° (W) 19:33:25 437.475
FO-29 15 Dec 19:30:45 19:35:28 20° 89° (E) 19:39:48 435.910
XW-2A 15 Dec 19:37:37 19:40:49 46° 261° (W) 19:44:04 145.665 - 145.685
AO-73 15 Dec 19:42:23 19:46:29 86° 81° (E) 19:50:39 145.935
STRAND 1 15 Dec 19:48:48 19:53:56 86° 101° (ESE) 19:59:01 437.568
BEESAT 3 15 Dec 19:49:09 19:53:06 80° 120° (ESE) 19:57:07 437.485
PCSat 15 Dec 19:58:44 20:02:48 21° 312° (NW) 20:06:52 145.827
Max Valier Satellite 15 Dec 20:06:32 20:07:09 10° 65° (ENE) 20:07:46 145.860
DELFI C3 15 Dec 20:08:32 20:11:23 19° 68° (ENE) 20:14:14 145.870
UWE-3 15 Dec 20:25:22 20:27:27 13° 268° (W) 20:29:31 435.000/436.395/437.385
EO-88 15 Dec 20:30:18 20:32:17 14° 67° (ENE) 20:34:17 145.990 - 145.960
BEESAT 2 15 Dec 20:31:54 20:35:51 61° 118° (ESE) 20:39:52 435.950
ZACube-1 15 Dec 20:47:24 20:49:44 15° 268° (W) 20:52:05 437.345
FALCONSAT 3 15 Dec 20:58:13 21:00:29 15° 154° (SSE) 21:02:44 435.103
Oscar 11 15 Dec 21:04:16 21:07:10 18° 267° (W) 21:10:07 .
AO-85 15 Dec 21:08:38 21:12:07 32° 114° (ESE) 21:15:44 145.980
FO-29 15 Dec 21:14:25 21:21:08 59° 289° (WNW) 21:27:00 435.910
RS-15 15 Dec 21:24:35 21:34:19 27° 30° (NNE) 21:43:37 29.354- 29.394
BEESAT 3 15 Dec 21:29:51 21:31:09 11° 317° (NW) 21:32:28 437.485
STRAND 1 15 Dec 21:30:53 21:32:21 11° 300° (WNW) 21:33:48 437.568
Max Valier Satellite 15 Dec 21:36:58 21:40:29 47° 261° (W) 21:44:03 145.860
DELFI C3 15 Dec 21:42:23 21:45:53 29° 263° (W) 21:49:25 145.870
ESTCUBE 1 15 Dec 21:46:15 21:48:48 15° 65° (ENE) 21:51:21 437.505/2401.250
TIGRISAT 15 Dec 22:00:15 22:04:37 70° 102° (ESE) 22:09:03 435.000
EO-88 15 Dec 22:02:18 22:05:36 32° 263° (W) 22:08:56 145.990 - 145.960
UNISAT 6 15 Dec 22:03:53 22:08:16 85° 103° (ESE) 22:12:44 437.425
BEESAT 2 15 Dec 22:11:47 22:13:57 14° 315° (NW) 22:16:08 435.950
PRISM 15 Dec 22:20:25 22:24:08 32° 98° (E) 22:27:47 437.425
LO-87 15 Dec 22:28:33 22:32:00 51° 75° (ENE) 22:35:26 145.935 - 145.965
FALCONSAT 3 15 Dec 22:35:36 22:39:04 40° 168° (SSE) 22:42:32 435.103
SO-50 15 Dec 22:48:35 22:51:26 16° 43° (NE) 22:54:17 436.795
